Olivia, MN

12:17 PM CST on February 24, 2018 (GMT -0600)
Olivia Regional

Weather History for KOVL - December, 2013

Change the Weather History Date:

Tuesday, December 10, 2013

  Actual Average (KRWF) Record (KRWF)
Temperature  
Mean Temperature 9 °F -  
Max Temperature 17 °F 26 °F 58 °F (1939)
Min Temperature 1 °F 10 °F -16 °F (1955)
Degree Days  
Heating Degree Days 56    
Moisture  
Dew Point 3 °F    
Average Humidity 76    
Maximum Humidity 86    
Minimum Humidity 66    
Precipitation  
Precipitation 0.00 in - - ()
Sea Level Pressure  
Sea Level Pressure 30.01 in    
Wind  
Wind Speed 15 mph (West)    
Max Wind Speed 26 mph    
Max Gust Speed 38 mph    
Visibility 8 miles    
Events Snow    
Averages and records for this station are not official NWS values.
T = Trace of Precipitation, MM = Missing Value Source: NWS Daily Summary

Daily Weather History Graph

Daily Weather History Graph

Search for Another Location

Airport or City:

Trip Planner

Search our weather history database for the weather conditions in past years. The results will help you decide how hot, cold, wet, or windy it might be!

Date:

Astronomy

Dec. 10, 2013 Rise Set
Actual Time 7:46 AM CST 4:39 PM CST
Civil Twilight 7:13 AM CST 5:12 PM CST
Nautical Twilight 6:36 AM CST 5:49 PM CST
Astronomical Twilight 6:00 AM CST 6:25 PM CST
Moon 12:54 PM CST (12/10) 12:51 AM CST (12/10)
Length of Visible Light 9h 59m
Length of Day
8h 52m
Waxing Gibbous, 62% of the Moon is Illuminated
Dec 10
Waxing Gibbous
Dec 17
Full
Dec 25
Last Quarter
Jan 1
New
Jan 7
First Quarter

Hourly Weather History & Observations

Time (CST) Temp. Windchill Dew Point Humidity Pressure Visibility Wind Dir Wind Speed Gust Speed Precip Events Conditions
12:13 AM 12.2 °F -3.7 °F 8.6 °F 85% 29.73 in 10.0 mi SW 15.0 mph 19.6 mph N/A   Overcast
12:33 AM 14.0 °F -0.8 °F 10.4 °F 86% 29.73 in 10.0 mi SW 13.8 mph - N/A   Overcast
12:53 AM 15.8 °F 2.1 °F 10.4 °F 79% 29.73 in 7.0 mi SW 12.7 mph - N/A   Overcast
1:14 AM 17.6 °F 2.7 °F 12.2 °F 79% 29.72 in 10.0 mi WSW 16.1 mph - N/A   Overcast
1:33 AM 17.6 °F 3.7 °F 12.2 °F 79% 29.73 in 10.0 mi WSW 13.8 mph - N/A Snow Light Snow
1:53 AM 17.6 °F 0.9 °F 14.0 °F 86% 29.73 in 4.0 mi West 20.7 mph 25.3 mph N/A   Overcast
2:14 AM 17.6 °F -0.6 °F 14.0 °F 86% 29.74 in 0.8 mi WNW 25.3 mph 31.1 mph N/A Snow Light Snow
2:33 AM 15.8 °F -2.7 °F 10.4 °F 79% 29.76 in 1.5 mi WNW 24.2 mph 29.9 mph N/A Snow Light Snow
2:54 AM 12.2 °F -7.1 °F 8.6 °F 85% 29.79 in 1.2 mi WNW 23.0 mph 34.5 mph N/A Snow Light Snow
3:13 AM 12.2 °F -7.1 °F 8.6 °F 85% 29.80 in 1.5 mi WNW 23.0 mph 32.2 mph N/A Snow Light Snow
3:34 AM 10.4 °F -9.1 °F 6.8 °F 85% 29.82 in 1.2 mi WNW 21.9 mph 29.9 mph N/A Snow Light Snow
3:53 AM 10.4 °F -9.9 °F 5.0 °F 79% 29.83 in 0.8 mi NW 24.2 mph 38.0 mph N/A Snow Light Snow
4:13 AM 10.4 °F -9.1 °F 6.8 °F 85% 29.85 in 0.8 mi WNW 21.9 mph 29.9 mph N/A Snow Light Snow
4:34 AM 8.6 °F -11.4 °F 3.2 °F 79% 29.88 in 0.8 mi WNW 21.9 mph 32.2 mph N/A Snow Light Snow
4:53 AM 6.8 °F -15.1 °F 1.4 °F 79% 29.89 in 1.2 mi NW 25.3 mph 33.4 mph N/A Snow Light Snow
5:13 AM 5.0 °F -17.9 °F 1.4 °F 85% 29.90 in 0.8 mi NW 26.5 mph 36.8 mph N/A Snow Light Snow
5:34 AM 3.2 °F -19.9 °F -0.4 °F 85% 29.92 in 1.5 mi NW 25.3 mph 34.5 mph N/A   Mostly Cloudy
5:53 AM 3.2 °F -18.1 °F -0.4 °F 85% 29.93 in 1.8 mi NW 20.7 mph 27.6 mph N/A   Haze
6:14 AM 3.2 °F -15.9 °F -2.2 °F 78% 29.95 in 3.0 mi WNW 16.1 mph - N/A   Haze
6:33 AM 3.2 °F -15.3 °F -2.2 °F 78% 29.97 in 7.0 mi WNW 15.0 mph - N/A   Scattered Clouds
6:54 AM 1.4 °F -16.9 °F -4.0 °F 78% 29.99 in 5.0 mi WNW 13.8 mph 23.0 mph N/A Snow Light Snow
7:13 AM 1.4 °F -14.5 °F -4.0 °F 78% 29.99 in 10.0 mi WNW 10.4 mph - N/A Snow Light Snow
7:33 AM 1.4 °F -14.5 °F -4.0 °F 78% 29.98 in 7.0 mi WNW 10.4 mph 17.3 mph N/A Snow Light Snow
7:54 AM 1.4 °F -16.1 °F -4.0 °F 78% 29.99 in 10.0 mi WNW 12.7 mph - N/A   Clear
8:13 AM 1.4 °F -15.3 °F -5.8 °F 72% 29.98 in 10.0 mi WNW 11.5 mph 18.4 mph N/A   Clear
8:34 AM 1.4 °F -16.1 °F -5.8 °F 72% 29.99 in 10.0 mi WNW 12.7 mph 17.3 mph N/A   Clear
8:53 AM 1.4 °F -13.5 °F -4.0 °F 78% 29.99 in 10.0 mi WNW 9.2 mph - N/A   Clear
9:13 AM 1.4 °F -15.3 °F -4.0 °F 78% 30.00 in 10.0 mi WNW 11.5 mph - N/A   Clear
9:34 AM 1.4 °F -16.1 °F -4.0 °F 78% 30.02 in 10.0 mi West 12.7 mph - N/A   Clear
9:53 AM 3.2 °F -12.2 °F -4.0 °F 72% 30.03 in 10.0 mi WSW 10.4 mph - N/A   Clear
10:13 AM 3.2 °F -13.1 °F -4.0 °F 72% 30.05 in 10.0 mi West 11.5 mph - N/A   Clear
10:34 AM 5.0 °F -11.6 °F -4.0 °F 66% 30.05 in 10.0 mi West 12.7 mph - N/A   Clear
10:54 AM 5.0 °F -11.6 °F -2.2 °F 72% 30.05 in 10.0 mi West 12.7 mph - N/A   Clear
11:13 AM 6.8 °F -9.3 °F -0.4 °F 72% 30.07 in 10.0 mi WSW 12.7 mph - N/A   Clear
11:33 AM 8.6 °F -5.5 °F -0.4 °F 67% 30.06 in 10.0 mi WSW 10.4 mph - N/A   Clear
11:53 AM 8.6 °F -5.5 °F -0.4 °F 67% 30.05 in 10.0 mi WSW 10.4 mph - N/A   Clear
12:14 PM 10.4 °F -4.1 °F 1.4 °F 67% 30.05 in 10.0 mi WSW 11.5 mph - N/A   Clear
12:34 PM 10.4 °F -5.4 °F 1.4 °F 67% 30.04 in 10.0 mi WSW 13.8 mph - N/A   Clear
12:53 PM 10.4 °F -4.1 °F 1.4 °F 67% 30.05 in 10.0 mi WSW 11.5 mph - N/A   Clear
1:13 PM 10.4 °F -3.3 °F 1.4 °F 67% 30.05 in 10.0 mi WSW 10.4 mph - N/A   Clear
1:33 PM 10.4 °F -2.4 °F 1.4 °F 67% 30.05 in 10.0 mi West 9.2 mph - N/A   Clear
1:54 PM 10.4 °F -2.4 °F 1.4 °F 67% 30.04 in 10.0 mi West 9.2 mph - N/A   Clear
2:13 PM 12.2 °F 1.7 °F 3.2 °F 67% 30.03 in 10.0 mi WSW 6.9 mph - N/A   Clear
2:33 PM 10.4 °F -2.4 °F 3.2 °F 73% 30.03 in 10.0 mi SW 9.2 mph - N/A   Clear
2:53 PM 10.4 °F -2.4 °F 3.2 °F 73% 30.03 in 10.0 mi SSW 9.2 mph - N/A   Clear
3:13 PM 10.4 °F -1.5 °F 3.2 °F 73% 30.03 in 10.0 mi SSW 8.1 mph - N/A   Clear
3:34 PM 10.4 °F 2.2 °F 3.2 °F 73% 30.04 in 10.0 mi SW 4.6 mph - N/A   Clear
3:53 PM 10.4 °F 2.2 °F 3.2 °F 73% 30.04 in 10.0 mi SW 4.6 mph - N/A   Clear
4:13 PM 12.2 °F 2.9 °F 5.0 °F 73% 30.04 in 10.0 mi SSW 5.8 mph - N/A   Mostly Cloudy
4:33 PM 12.2 °F 2.9 °F 5.0 °F 73% 30.05 in 10.0 mi SSW 5.8 mph - N/A   Overcast
4:53 PM 12.2 °F 2.9 °F 6.8 °F 79% 30.05 in 10.0 mi SSW 5.8 mph - N/A   Overcast
5:13 PM 12.2 °F 2.9 °F 6.8 °F 79% 30.05 in 10.0 mi SW 5.8 mph - N/A   Overcast
5:33 PM 12.2 °F 2.9 °F 6.8 °F 79% 30.05 in 10.0 mi WSW 5.8 mph - N/A   Overcast
5:54 PM 15.8 °F 7.2 °F 8.6 °F 73% 30.06 in 10.0 mi WSW 5.8 mph - N/A   Overcast
6:13 PM 14.0 °F 6.5 °F 8.6 °F 79% 30.08 in 10.0 mi SW 4.6 mph - N/A   Overcast
6:33 PM 15.8 °F 10.2 °F 10.4 °F 79% 30.09 in 10.0 mi SW 3.5 mph - N/A   Overcast
6:53 PM 15.8 °F 8.6 °F 10.4 °F 79% 30.10 in 10.0 mi SW 4.6 mph - N/A   Overcast
7:14 PM 15.8 °F 7.2 °F 10.4 °F 79% 30.11 in 10.0 mi WSW 5.8 mph - N/A   Overcast
7:34 PM 15.8 °F 7.2 °F 10.4 °F 79% 30.11 in 4.0 mi SW 5.8 mph - N/A Snow Light Snow
7:53 PM 15.8 °F 6.1 °F 10.4 °F 79% 30.12 in 10.0 mi WSW 6.9 mph - N/A   Overcast
8:13 PM 15.8 °F 6.1 °F 12.2 °F 86% 30.13 in 7.0 mi West 6.9 mph - N/A Snow Light Snow
8:34 PM 15.8 °F 3.4 °F 12.2 °F 86% 30.15 in 10.0 mi West 10.4 mph - N/A   Overcast
8:54 PM 17.6 °F 7.3 °F 12.2 °F 79% 30.16 in 10.0 mi WNW 8.1 mph - N/A   Overcast
9:13 PM 15.8 °F -0.6 °F 10.4 °F 79% 30.18 in 5.0 mi NNW 18.4 mph 25.3 mph N/A Snow Light Snow
9:34 PM 14.0 °F -3.9 °F 6.8 °F 73% 30.19 in 10.0 mi NNW 20.7 mph 27.6 mph N/A   Overcast
9:53 PM 10.4 °F -8.2 °F 3.2 °F 73% 30.21 in 10.0 mi NNW 19.6 mph 25.3 mph N/A   Overcast
10:13 PM 8.6 °F -9.5 °F 1.4 °F 73% 30.24 in 10.0 mi NNW 17.3 mph 26.5 mph N/A   Scattered Clouds
10:33 PM 8.6 °F -8.9 °F 1.4 °F 73% 30.26 in 10.0 mi NNW 16.1 mph 23.0 mph N/A   Clear
10:53 PM 6.8 °F -9.3 °F -0.4 °F 72% 30.27 in 10.0 mi NW 12.7 mph 19.6 mph N/A   Mostly Cloudy
11:14 PM 5.0 °F -11.6 °F -2.2 °F 72% 30.29 in 10.0 mi NNW 12.7 mph 18.4 mph N/A   Scattered Clouds
11:33 PM 3.2 °F -14.6 °F -4.0 °F 72% 30.29 in 10.0 mi NNW 13.8 mph 19.6 mph N/A   Clear
11:54 PM 3.2 °F -14.6 °F -4.0 °F 72% 30.31 in 10.0 mi NW 13.8 mph 19.6 mph N/A   Clear